Orlando International, FL

2:20 PM EDT on June 25, 2017 (GMT -0400)
Orlando International

Weather History for KMCO - February, 2013

Change the Weather History Date:

Friday, February 1, 2013

  Actual Average Record
Temperature  
Mean Temperature 55 °F 61 °F  
Max Temperature 70 °F 72 °F 87 °F (1985)
Min Temperature 40 °F 50 °F 28 °F (1936)
Degree Days  
Heating Degree Days 10 5  
Month to date heating degree days 10 5  
Since 1 July heating degree days 232 389  
Cooling Degree Days 0 2  
Month to date cooling degree days 0 2  
Year to date cooling degree days 101 47  
Growing Degree Days 4 (Base 50)    
Moisture  
Dew Point 30 °F    
Average Humidity 47    
Maximum Humidity 76    
Minimum Humidity 17    
Precipitation  
Precipitation 0.00 in 0.08 in 0.70 in (1920)
Month to date precipitation 0.00 0.08  
Year to date precipitation 0.24 2.43  
Sea Level Pressure  
Sea Level Pressure 30.30 in    
Wind  
Wind Speed 7 mph (NNW)    
Max Wind Speed 17 mph    
Max Gust Speed 25 mph    
Visibility 10 miles    
Events      
T = Trace of Precipitation, MM = Missing Value Source: NWS Daily Summary

Daily Weather History Graph

Daily Weather History Graph

Search for Another Location

Airport or City:

Trip Planner

Search our weather history database for the weather conditions in past years. The results will help you decide how hot, cold, wet, or windy it might be!

Date:

Astronomy

Feb. 01, 2013 Rise Set
Actual Time 7:12 AM EST 6:05 PM EST
Civil Twilight 6:48 AM EST 6:29 PM EST
Nautical Twilight 6:20 AM EST 6:58 PM EST
Astronomical Twilight 5:52 AM EST 7:25 PM EST
Moon 11:34 PM EST (2/1) 10:18 AM EST (2/1)
Length of Visible Light 11h 41m
Length of Day
10h 52m
Waning Gibbous, 70% of the Moon is Illuminated
Feb 1
Waning Gibbous
Feb 3
Last Quarter
Feb 10
New
Feb 17
First Quarter
Feb 25
Full

Hourly Weather History & Observations

Time (EST) Temp. Windchill Dew Point Humidity Pressure Visibility Wind Dir Wind Speed Gust Speed Precip Events Conditions
12:53 AM 48.9 °F - 30.0 °F 48% 30.25 in 10.0 mi NNW 10.4 mph - N/A   Partly Cloudy
1:53 AM 46.0 °F 42.5 °F 30.9 °F 56% 30.25 in 10.0 mi North 6.9 mph - N/A   Scattered Clouds
2:53 AM 42.1 °F 38.4 °F 30.9 °F 65% 30.25 in 10.0 mi North 5.8 mph - N/A   Scattered Clouds
3:53 AM 42.1 °F 37.7 °F 33.1 °F 70% 30.26 in 10.0 mi North 6.9 mph - N/A   Partly Cloudy
4:53 AM 42.1 °F 38.4 °F 33.1 °F 70% 30.27 in 10.0 mi North 5.8 mph - N/A   Partly Cloudy
5:53 AM 41.0 °F 37.1 °F 33.1 °F 73% 30.28 in 10.0 mi North 5.8 mph - N/A   Partly Cloudy
6:53 AM 39.9 °F 35.8 °F 32.0 °F 73% 30.31 in 10.0 mi North 5.8 mph - N/A   Partly Cloudy
7:53 AM 44.1 °F 40.8 °F 34.0 °F 68% 30.34 in 10.0 mi North 5.8 mph - N/A   Partly Cloudy
8:53 AM 51.1 °F - 32.0 °F 48% 30.36 in 10.0 mi North 10.4 mph - N/A   Partly Cloudy
9:53 AM 57.0 °F - 28.9 °F 34% 30.36 in 10.0 mi North 13.8 mph - N/A   Partly Cloudy
10:53 AM 59.0 °F - 28.0 °F 31% 30.37 in 10.0 mi NNW 9.2 mph - N/A   Partly Cloudy
11:53 AM 62.1 °F - 27.0 °F 26% 30.35 in 10.0 mi NW 10.4 mph - N/A   Clear
12:53 PM 64.0 °F - 27.0 °F 25% 30.33 in 10.0 mi NW 8.1 mph 16.1 mph N/A   Partly Cloudy
1:53 PM 66.9 °F - 24.1 °F 20% 30.30 in 10.0 mi North 4.6 mph - N/A   Scattered Clouds
2:53 PM 69.1 °F - 23.0 °F 18% 30.29 in 10.0 mi NNW 5.8 mph - N/A   Partly Cloudy
3:53 PM 70.0 °F - 24.1 °F 18% 30.27 in 10.0 mi NNW 4.6 mph - N/A   Partly Cloudy
4:53 PM 66.9 °F - 23.0 °F 19% 30.27 in 10.0 mi WNW 3.5 mph - N/A   Mostly Cloudy
5:53 PM 64.0 °F - 25.0 °F 23% 30.27 in 10.0 mi WNW 5.8 mph - N/A   Mostly Cloudy
6:53 PM 62.1 °F - 26.1 °F 25% 30.27 in 10.0 mi NW 4.6 mph - N/A   Mostly Cloudy
7:53 PM 57.9 °F - 28.0 °F 32% 30.28 in 10.0 mi NW 4.6 mph - N/A   Scattered Clouds
8:53 PM 55.0 °F - 30.9 °F 40% 30.29 in 10.0 mi NNW 3.5 mph - N/A   Partly Cloudy
9:53 PM 54.0 °F - 35.1 °F 49% 30.31 in 10.0 mi WNW 8.1 mph - N/A   Clear
10:53 PM 52.0 °F - 36.0 °F 54% 30.31 in 10.0 mi NNW 4.6 mph - N/A   Clear
11:53 PM 48.9 °F - 36.0 °F 61% 30.31 in 10.0 mi North 5.8 mph - N/A   Clear